Погода в Волгограде

Погода в Волгограде : погода сейчас, прогноз погоды и архив. Всё, что Вы хотите узнать о погоде в Волгограде!

Хотите узнать прогноз погоды в Волгограде? Тогда Вам сюда: Погода в Волгограде

Поиск расширенной информации на нашем сайте:

Другие новости

Новости СМИ2

Главная страница сайта

Новости сайта

03.07.2017

Напоминаем, что на нашем специализированном сайте Метеоцентр.Азия вы можете получить высокодетализированные автоматические прогнозы погоды по пунктам России, СНГ и мира в авиационном формате (включающие направление и скорость ветра, видимость, явления погоды, количество и форму облачности, нижнюю и верхнюю границу облачности).


Погода в Волгограде - сегодня

Время (UTC), дата Ветер
(°,м/с) 
Видим.   Явления Облачность Т
(°С)
Тd
(°С)
f(%) Тe
(°С)
Pmin
(гПа)
dP
(гПа)
Po
(мм)
O2
(г/м3)
Тmin Tmax R s Состояние
почвы
18 17.11.17 360 (С) 10 км    ясно 
+2.1 -2 74 +1  1029.5  0.4  758  303           
21 17.11.17 090 (В) 10 км    ясно 
-1 -3.5 83 -3  1029.5  -0.2  757  307           
00 18.11.17 140 (ЮВ) 10 км    ясно 
-1.6 -3.2 89 -4  1029.2  -0.3  757  307           
03 18.11.17 130 (ЮВ) 10 км    ясно 
-2 -3 93 -4  1028.6  -0.6  757  307  -2.9         
06 18.11.17 130 (ЮВ) 10 км    6/0 верхняя 
[Ci fib]
+0.1 -1.4 90 -2  1028.8  0.3  757  305           
09 18.11.17 160 (Ю) 10 км    8/0 средняя 
[Ac trans]
+2.3 -1.1 78 -1  1027.6  -1  756  302           
12 18.11.17 130 (ЮВ) 10 км    8/5 660 м средняя 
[Sc|Ac trans]
+3.6 -0.9 72 +1  1026  -1.4  755  300           
15 18.11.17 130 (ЮВ) 10 км    6/6 800 м 
[Sc]
+2.1 -1.2 79 -1  1025.3  -0.8  754  302    +4       
18 18.11.17 120 (ЮВ) 10 км    10/10 870 м 
[Sc]
+3.1 -0.5 77 1023.9  -1.3  753  300           
21 18.11.17 130 (ЮВ) 6{10}  4000 м  слаб. дождь  10/10 300 м 
[Frnb|Ns]
+2.1 +1.1 93 -1  1023  -0.9  753  301           
00 19.11.17 120 (ЮВ) 7{10}  4000 м  слаб. дождь  10/10 60 м 
[Frnb|Ns]
+2.1 +1.8 98 -1  1021.3  -1.7  752  300           
03 19.11.17 120 (ЮВ) 4000 м  в посл. час дождь  10/10 100 м 
[St]
+2.4 +2.2 99 -1  1020.2  -1  751  300  +1.8         
06 19.11.17 120 (ЮВ) 0300 м  туман{дождь}  ?/?  
+2.5 +2.5 100 1019.6  -0.6  750  299           
09 19.11.17 130 (ЮВ) 0500 м  слаб. морось{туман}  ?/?  
+3.9 +3.9 100 +1  1018.1  -1.4  749  297           
12 19.11.17 110 (В) 1400 м  слаб. морось{туман}  10/10 60 м 
[St]
+5.6 +5.6 100 +3  1016.4  -1.5  748  294           
15 19.11.17 140 (ЮВ) 4000 м  слаб. морось{туман}  10/10 60 м 
[St]
+6.8 +6.8 100 +5  1016.2  -0.2  748  293    +7       
18 19.11.17 150 (ЮВ) 0900 м  туман{морось}  ?/?  
+6.7 +6.7 100 +4  1015.9  -0.3  748  293           
21 19.11.17 160 (Ю) 6{12}  1900 м  дымка{туман}  10/10 60 м 
[St]
+6.5 +6.5 100 +4  1015.7  -0.1  748  293           
00 20.11.17 130 (ЮВ) 6{12}  0200 м  слаб. морось{туман}  ?/?  
+6.5 +6.5 100 +4  1014.6  -1  747  293           
03 20.11.17 130 (ЮВ) 8-11  0500 м  слаб. морось{туман}  ?/?  
+6.2 +6.2 100 +3  1013.9  -0.7  746  293  +6         
06 20.11.17 130 (ЮВ) 0200 м  туман{морось}  ?/?  
+6.4 +6.4 100 +4  1014.5  0.7  747  293  +5.8         
09 20.11.17 140 (ЮВ) 0100 м  туман{морось}  ?/?  
+6.9 +6.9 100 +5  1013.7  -0.8  746  292           
12 20.11.17 130 (ЮВ) 4000 м  {морось, туман}  9/9 270 м 
[St]
+8.5 +8.4 99 +7  1012.5  -1.2  745  290           
15 20.11.17 100 (В) 10 км    9/9 270 м 
[St]
+7.8 +6.9 94 +6  1011.8  -0.7  745  291    +8.7       
18 20.11.17 120 (ЮВ) 10 км    5/0 средняя 
[Ac trans]
+5.6 +4.4 92 +3  1010.6  -1.2  744  293           
Время (UTC), дата Ветер
(°,м/с) 
Видим.   Явления Облачность Т
(°С)
Тd
(°С)
f(%) Тe
(°С)
Pmin
(гПа)
dP
(гПа)
Po
(мм)
O2
(г/м3)
Тmin Tmax R s Состояние
почвы

Для получения пояснительной информации подведите курсор к названию столбца.

ПОГОДА в Волгограде - архив

Всё, что Вы хотите узнать о погоде в Волгограде - удобно и подробно!

Выберите нужную дату (начиная с 1 января 2015* года) и нажмите кнопку "Найти".
Будут отображены архивные сводки погоды по пункту Волгоград, начиная с указанной даты.


Отображать данные в формате CSV (для использования в таблицах Excel)


Внимание! Наш архив погоды предназначен исключительно для личного некоммерческого использования в познавательных целях. Если Вам необходимы официальные справки о состоянии погоды (для производственных, юридических, коммерческих и т.п. целей), обращайтесь в органы Росгидромета.

*Примечание: данная дата относится к архиву по метеостанциям СССР (Россия, СНГ, Балтия).
Архив по метеостанциям Зарубежной Европы и Азии (кроме Китая) хранится 10 дней, по другим регионам земного шара (Китай, Африка, Америка, Австралия, Океания) - 1 день.

Волгоград - район местоположения метеостанции


Название, широта, долгота, высота метеостанции:
Волгоград (Гумрак) 48.8°ш. 44.4°д. 134 м над ур. моря [Российская Федерация]

Дополнительная информация

В oтличие oт бoльшинства пoгoдных сайтoв мы публикуем пoдрoбную метеoинфoрмацию в детальнoм прoфессиoнальнoм фoрмате.

Характеристики температуры и влажнoсти вoздуха измеряются на высoте 2 м в тени вдали oт зданий и деревьев.
Скoрoсть ветра измеряется на высoте 10 м (на урoвне рoста челoвека скoрoсть ветра ниже в 1.5-2 раза). Если метеoстанция нахoдится в гoрoде или в лесу, тo скoрoсть ветра занижена на 2-4 м/с пo сравнению с oткрытым местoм. Скoрoсть ветра над акватoриями крупных рек и oзёр, а также на вершинах хoлмoв на 2-5 м/с выше, чем в oбычных услoвиях.
Атмoсфернoе давление в разных тoчках местнoсти мoжет значительнo oтличаться oт давления на метеoстанции, в зависимoсти oт услoвий рельефа (при пoдъёме на 10 м давление пoнижается примернo на 1 мм рт.ст.).